"Pseudo-MPEC" for S511374

Created 2018 Apr 18 16:21:22 UT using Find_Orb

Click here for an explanation of pseudo-MPECs

 
 Astrometry: 
     S511374 tC2017 11 17.01667 01 18 26.80 -09 54 28.6          16.1 RqD0560Y00
     S511374 tC2017 11 17.05275 01 30 30.48 -09 09 56.1          15.6 RqD0560Y00
     S511374  C2017 11 17.05305 01 30 35.97 -09 09 34.0          15.2 RqD0560Y00
     S511374  C2017 11 17.05332 01 30 40.93 -09 09 15.0          15.2 RqD0560Y00
     S511374  C2017 11 17.05365 01 30 47.04 -09 08 50.0          15.0 RqD0560Y00
     S511374  C2017 11 17.05393 01 30 52.21 -09 08 29.9          15.1 RqD0560Y00
     S511374  C2017 11 17.05427 01 30 58.32 -09 08 04.6          15.0 RqD0560Y00
     S511374 tC2017 11 17.05457 01 31 04.00 -09 07 43.0          15.6 RqD0560Y00
     S511374  C2017 11 17.05486 01 31 09.19 -09 07 23.0          14.9 RqD0560Y00
     S511374 tC2017 11 17.05586 01 31 27.84 -09 06 08.3          15.7 RqD0560Y00
     S511374  C2017 11 17.05618 01 31 33.29 -09 05 45.7          15.0 RqD0560Y00
     S511374 tC2017 11 17.05651 01 31 39.56 -09 05 21.4          15.6 RqD0560Y00

Station data:
(Y00) SONEAR Observatory, Oliveira  (S20.715082 W44.784960)  Brazil.
   Observers C. Jacques, E. Pimentel, J. Barros. Measurer C. Jacques. 0.28-m
   f/2.2 astrograph + CCD.

Orbital elements:  S511374
   Perigee 2017 Nov 16.799367 +/- 0.00623 TT = 19:11:05 (JD 2458074.299367)
Epoch 2017 Nov 17.0 TT = JDT 2458074.5                        Gray
M  73.21982 +/- 4.6                 (J2000 equator)
n 364.94320073 +/- 19.5             Peri.  155.81914 +/- 1.5
a 41858.7885 +/- 1488               Node    65.88473 +/- 0.17
e   0.7821554 +/- 0.00708           Incl.   15.12089 +/- 0.049
P1420.47m/0.986d           H 31.4   G  0.15   U 14.7  
q 9118.70847 +/- 427    Q 74598.8686 +/- 2731
From 12 observations 2017 Nov. 17 (57.4 min); mean residual 1".097
Residuals in arcseconds: 
171117 Y00 .006- .001-    171117 Y00 .103+ .351+    171117 Y00 1.59- 1.08-    
171117 Y00 1.12+ .071+    171117 Y00 .231+ .019-    171117 Y00 3.27+ .583+    
171117 Y00 .238+ .226+    171117 Y00 1.99- .430+    171117 Y00 2.63- .179-    
171117 Y00 .188- .520-    171117 Y00 .432+ .107+    171117 Y00 1.02+ .034+    

Ephemerides (geocentric):
Date (UTC) HH   RA              Dec         delta  elong  mag " sig PA
---- -- -- --  -------------   -----------  ------ -----  --- ---- ---
2017 11 17 00  01 09 06.179   -11 27 33.67   55357 134.1 15.9 54.4  29
2017 11 17 01  01 28 49.091   -10 34 14.00   60779 138.2 16.0 57.6 162
2017 11 17 02  01 45 28.887   -09 45 18.24   65172 141.6 16.1  103 121
2017 11 17 03  02 00 10.215   -08 59 25.98   68648 144.4 16.1  198 102
2017 11 17 04  02 13 32.819   -08 15 34.68   71286 147.0 16.1  344  92
2017 11 17 05  02 26 03.523   -07 32 53.54   73138 149.2 16.1  547  87
2017 11 17 06  02 38 02.095   -06 50 38.55   74238 151.2 16.1  817  84
2017 11 17 07  02 49 44.497   -06 08 08.48   74604 153.0 16.1 1171  82
2017 11 17 08  03 01 24.958   -05 24 41.34   74244 154.6 16.0 1635  80
2017 11 17 09  03 13 17.566   -04 39 30.70   73150 156.0 15.9 2247  79
2017 11 17 10  03 25 37.839   -03 51 40.94   71305 157.1 15.8 3066  78
2017 11 17 11  03 38 44.705   -03 00 00.50   68674 157.9 15.7 4192  77
2017 11 17 12  03 53 03.554   -02 02 50.63   65204 158.2 15.6 5796  76
2017 11 17 13  04 09 11.711   -00 57 45.39   60820 157.9 15.5 8202  76
2017 11 17 14  04 28 09.586   +00 19 08.19   55409 156.6 15.3 202'  76
2017 11 17 15  04 51 46.770   +01 54 37.81   48800 153.9 15.1 319'  76
2017 11 17 16  05 23 55.424   +04 02 08.55   40732 148.7 14.9 580'  76
2017 11 17 17  06 15 03.564   +07 12 51.72   30768 138.6 14.5  24d  77
2017 11 17 18  08 10 39.823   +12 45 12.32   18271 113.1 14.2 125d  82
2017 11 17 19  16 45 56.383   -01 31 59.18    9684  25.2 19??  82d 105
2017 11 17 20  22 09 35.806   -15 06 34.02   22474  93.6 15.3  22d  91
2017 11 17 21  23 37 42.482   -14 22 26.81   34123 113.2 15.5 689'  85
2017 11 17 22  00 23 11.642   -13 10 50.16   43433 123.2 15.7 465'  83
2017 11 17 23  00 53 25.779   -12 05 54.35   51009 129.8 15.9 354'  81
2017 11 18 00  01 16 14.337   -11 08 20.50   57220 134.7 16.0 292'  80
2017 11 18 01  01 34 48.851   -10 16 21.39   62296 138.6 16.1 253'  79
2017 11 18 02  01 50 44.962   -09 28 20.53   66383 141.8 16.1 229'  78
2017 11 18 03  02 04 57.356   -08 43 03.11   69583 144.6 16.2 215'  78
2017 11 18 04  02 18 00.718   -07 59 30.49   71963 147.0 16.2 207'  78
2017 11 18 05  02 30 19.131   -07 16 54.19   73570 149.2 16.1 206'  77
2017 11 18 06  02 42 10.863   -06 34 31.28   74432 151.2 16.1 210'  77
2017 11 18 07  02 53 51.126   -05 51 40.49   74564 153.0 16.1 220'  77
2017 11 18 08  03 05 33.942   -05 07 38.70   73969 154.6 16.0 236'  76
2017 11 18 09  03 17 33.682   -04 21 37.00   72636 156.0 15.9 261'  76
2017 11 18 10  03 30 06.716   -03 32 35.45   70542 157.2 15.8 298'  76
2017 11 18 11  03 43 33.648   -02 39 15.18   67648 158.0 15.7 351'  75
2017 11 18 12  03 58 22.947   -01 39 45.04   63894 158.3 15.6 434'  75
2017 11 18 13  04 15 17.740   -00 31 16.85   59193 157.9 15.4 567'  75
2017 11 18 14  04 35 30.240   +00 50 45.17   53419 156.4 15.2 813'  75
2017 11 18 15  05 01 17.343   +02 34 40.60   46375 153.2 15.0  23d  75
2017 11 18 16  05 37 48.607   +04 57 43.17   37756 147.0 14.8  58d  76
2017 11 18 17  06 40 43.710   +08 42 15.27   27048 134.1 14.4 162d  78
2017 11 18 18  09 38 05.596   +14 52 20.21   13810  94.4 14.2 162d  87
2017 11 18 19  19 35 07.982   -11 23 37.53   13220  57.9 16??  64d 100
2017 11 18 20  22 46 58.845   -15 04 06.58   26521 100.9 15.4  27d  88
2017 11 18 21  23 55 15.256   -13 58 49.00   37338 116.1 15.6  17d  84
2017 11 18 22  00 34 23.915   -12 48 10.83   46036 124.8 15.8 750'  82
2017 11 18 23  01 01 43.451   -11 45 24.81   53140 130.7 16.0 606'  80
2017 11 19 00  01 22 55.856   -10 49 33.66   58966 135.2 16.1 520'  79
2017 11 19 01  01 40 31.642   -09 58 47.06   63709 138.9 16.1 465'  79